Location: Falling
(55.9087°N, 10.1311°E)
Time: 07:43:28
(UTC+00:00)

Daily predictions for brighter satellites

Satellite Brightness Start Highest point End
(mag) Time Altitude Azimuth Time Altitude Azimuth Time Altitude Azimuth
USA 229 DEB 4.2 15:58:50 10° WNW 16:05:31 48° N 16:12:40 10° E
USA 229 4.2 15:58:56 10° WNW 16:05:36 48° N 16:12:44 10° E
Cosmos 1833 Rocket 4.1 16:03:39 10° NNW 16:07:50 21° NNE 16:12:02 10° ENE
Cosmos 2082 Rocket 3.8 16:05:13 10° NW 16:09:15 19° N 16:13:16 10° NE
Cosmos 1939 Rocket 3.7 16:08:28 10° SE 16:12:06 31° ENE 16:15:43 10° N
NOSS 3-4 (A) 3.5 16:06:42 10° SW 16:12:36 73° SE 16:19:04 10° NE
Cosmos 2034 Rocket 4.4 16:06:24 10° NNW 16:12:42 72° W 16:18:54 10° S
NOSS 3-4 (C) 3.6 16:06:51 10° SW 16:12:46 72° SE 16:19:14 10° NE
Cosmos 2219 3.8 16:07:15 10° SW 16:12:55 59° NW 16:18:35 10° NNE
H-2A R/B 3.7 16:11:07 10° S 16:14:45 50° W 16:18:23 10° NNW
Cosmos 2279 Rocket 4.3 16:09:27 10° N 16:15:31 47° ENE 16:21:32 10° SE
Cosmos 1315 Rocket 2.9 16:13:36 10° N 16:17:30 51° ENE 16:21:23 10° SSE
Cosmos 1674 2.7 16:14:57 10° S 16:18:46 73° E 16:22:37 10° NNE
NOSS 3-1 (A) 4.2 16:14:44 10° WNW 16:21:04 49° N 16:28:37 10° E
Cosmos 1707 3.9 16:18:05 10° SW 16:21:47 44° WNW 16:25:29 10° N
COSMO-SKYMED 1 4.1 16:19:58 10° NE 16:22:53 17° E 16:25:46 10° SE
CZ-4 R/B 2.6 16:21:22 10° ESE 16:24:26 21° ENE 16:27:28 10° N
Cosmos 1536 Rocket 3.6 16:20:55 10° S 16:25:17 67° E 16:29:42 10° NNE
Cosmos 2227 Rocket 2.8 16:21:30 10° SW 16:27:04 57° NW 16:32:43 10° NNE
Cosmos 1634 Rocket 4.0 16:23:05 10° N 16:29:21 80° ENE 16:35:38 10° SSE
ATLAS 2AS CENTAUR R/B 3.1 16:22:21 10° SW 16:30:17 75° SE 16:38:00 10° NE
Cosmos 1844 Rocket 4.3 16:32:57 10° SE 16:35:41 14° E 16:37:42 12° ENE
Cosmos 1025 Rocket 3.3 16:31:57 10° SSW 16:36:17 71° WNW 16:40:40 10° N
Cosmos 2344 4.1 16:28:58 10° WNW 16:37:01 60° NNE 16:47:42 10° E
CZ-2C R/B 3.5 16:32:05 10° SE 16:37:10 43° ENE 16:42:30 10° N
CZ-4B R/B 2.9 16:35:07 11° NE 16:37:22 19° E 16:39:50 10° SE
H-2A R/B 2.9 16:34:58 10° S 16:39:01 69° WSW 16:43:16 10° NNW
Okean-O 3.5 16:35:17 10° ESE 16:39:02 28° ENE 16:42:50 10° N
Cosmos 773 Rocket 4.0 16:34:13 10° NNW 16:39:26 90° WSW 16:44:35 10° SSE
Cosmos 1680 Rocket 4.3 16:34:57 10° NNW 16:39:38 31° NE 16:44:17 10° ESE
SeaSat 1 2.9 16:35:03 10° NNE 16:39:56 62° NW 16:44:48 10° SW
H-2A R/B 2.8 16:35:49 10° ESE 16:40:09 30° ENE 16:44:35 10° N
Okean O Rocket 1.6 16:37:25 10° SSE 16:41:52 90° NE 16:46:20 10° NNW
YAOGAN 6 4.2 16:40:27 10° SSW 16:43:48 38° W 16:47:13 10° NNW
SMAP 3.4 16:39:17 10° S 16:43:56 71° WSW 16:48:37 10° NNW
Cosmos 1626 2.0 16:40:57 10° S 16:44:37 69° E 16:48:19 10° NNE
CZ-4B R/B 3.5 16:40:28 10° SSE 16:46:02 77° WSW 16:51:44 10° NNW
SL-24 R/B 4.4 16:42:05 10° S 16:46:28 77° WSW 16:51:16 10° NNW
Timation 1 Rocket 4.5 16:41:59 10° SW 16:48:01 83° NW 16:54:06 10° NE
Meteor 2-10 Rocket 3.8 16:43:32 10° N 16:49:04 54° ENE 16:54:20 10° SE
Cosmos 2297 Rocket 3.3 16:46:21 10° WSW 16:51:39 39° NW 16:56:57 10° NNE
Cosmos 1606 Rocket 3.5 16:50:01 10° NNW 16:54:25 85° ENE 16:58:50 10° SSE
H-2A R/B 2.1 16:51:33 10° NNE 16:56:03 65° ESE 17:00:26 10° S
CZ-2D R/B 3.3 16:54:48 10° SSE 16:58:34 54° ENE 17:02:20 10° N
USA 234 3.3 16:52:59 12° E 16:59:03 82° N 17:05:38 10° W
CZ-4C R/B 2.9 16:56:54 10° NNE 17:00:05 72° WNW 17:03:13 10° SSW
CSL-04 Rocket 4.3 16:56:15 10° ESE 17:01:04 34° ENE 17:05:58 10° N
YAOGAN 1 3.0 16:57:16 10° SE 17:01:16 37° ENE 17:05:17 10° N
Cosmos 1892 Rocket 4.0 16:57:45 10° SSE 17:01:44 37° E 17:05:46 10° NNE
Meteor 2-1 Rocket 4.4 16:56:42 10° N 17:02:08 47° ENE 17:07:27 10° SE
ATLAS 5 CENTAUR R/B 1.9 16:59:04 10° SSW 17:03:03 50° SE 17:06:05 19° ENE
Cosmos 2082 4.3 16:58:19 10° SW 17:03:55 54° NW 17:09:33 10° NNE
MOS 1 Rocket 3.9 17:01:39 11° NNE 17:05:19 30° E 17:09:06 10° SSE
Tsikada Rocket 4.3 16:59:17 10° SSW 17:05:35 70° WNW 17:11:51 10° N
Cosmos 2228 3.3 17:02:09 10° NNW 17:06:24 70° W 17:10:39 10° S
Helios 1A Rocket 3.5 17:03:20 10° SE 17:07:06 35° ENE 17:10:54 10° N
SL-14 R/B 3.2 17:03:14 10° S 17:07:07 89° ESE 17:11:06 10° NNE
RESURS DK-1 2.3 17:04:29 10° SW 17:08:37 89° NW 17:11:53 16° NE
SKYMED 2 4.0 17:07:13 10° NNE 17:11:21 41° E 17:15:28 10° S
Cosmos 1538 Rocket 4.0 17:07:55 10° NNW 17:13:07 83° WSW 17:18:18 10° SSE
Aureole 3 3.4 17:09:42 10° N 17:13:26 39° ENE 17:16:31 10° SE
Meteor 2-5 Rocket 3.7 17:10:38 10° SSW 17:16:12 90° NW 17:21:47 10° NNE
CZ-3B R/B 2.0 17:14:07 10° W 17:16:14 49° SSW 17:20:09 12° ESE
CZ-4C R/B 2.4 17:11:02 10° WSW 17:16:23 76° NNW 17:21:18 18° NE
Cosmos 2112 Rocket 4.3 17:12:16 10° NNW 17:17:20 44° NE 17:21:52 12° ESE
SJ-11-01 4.5 17:14:25 10° SE 17:18:55 47° ENE 17:23:25 10° N
SJ 16-02 2.6 17:15:39 10° SSE 17:18:57 22° ESE 17:18:57 22° ESE
Nadezhda 4 Rocket 4.3 17:14:46 10° SSE 17:20:37 44° E 17:26:26 10° NNE
Cosmos 1777 Rocket 4.2 17:17:10 10° S 17:22:15 50° ESE 17:26:00 18° NE
Cosmos 1455 2.2 17:20:13 10° N 17:23:57 52° ENE 17:27:42 10° SSE
Cosmos 2263 Rocket 2.2 17:18:24 10° SSW 17:24:07 89° ESE 17:28:55 15° NE
Cosmos 2058 Rocket 3.0 17:21:20 10° NNW 17:25:52 88° E 17:30:22 10° SSE
Cosmos 968 Rocket 4.3 17:21:53 10° SW 17:26:49 47° NW 17:31:48 10° NNE
Cosmos 1300 4.4 17:24:32 10° NNW 17:28:04 36° W 17:31:34 10° SSW
Cosmos 1354 Rocket 4.1 17:23:21 10° SSW 17:28:41 80° WNW 17:33:42 12° NNE
COSMOS 2406 3.7 17:24:33 10° NNW 17:30:01 40° NE 17:32:43 26° E
USA-17 4.1 17:26:46 10° SW 17:30:07 88° ESE 17:30:58 44° NE
NOSS 7 (H) 4.0 17:31:55 10° SW 17:34:59 80° NW 17:35:34 53° NE
GENESIS II 4.1 17:34:01 10° SW 17:38:01 79° SE 17:39:28 38° NE
ARGOS 3.1 17:34:25 10° SE 17:39:40 58° ENE 17:44:57 10° N
NOSS 3-1 (C) 3.9 17:33:19 10° NW 17:40:19 80° NE 17:47:11 16° ESE
Lacrosse 5 2.8 17:35:30 10° WNW 17:40:21 47° SW 17:45:00 11° SE
CREW DRAGON DEMO-1 DEB 4.5 17:38:33 10° WSW 17:41:02 25° SSW 17:41:52 22° SSE
ERS-2 2.3 17:42:03 46° E 17:42:08 46° ESE 17:45:39 10° S
Okean 1-7 Rocket 3.6 17:38:46 10° S 17:43:15 62° E 17:47:05 14° NNE
CZ-2C R/B 4.1 17:45:50 20° SE 17:45:50 20° SE 17:48:08 10° SSE
PSLV R/B 4.2 17:43:31 39° ENE 17:44:25 45° E 17:48:29 10° S
ISS -1.1 17:44:39 10° SSE 17:45:00 11° SSE 17:45:00 11° SSE
Cosmos 1939 Rocket 4.4 17:43:05 10° SSW 17:46:58 39° W 17:50:49 10° NNW
Cosmos 1553 Rocket 4.4 17:42:49 10° N 17:48:50 39° ENE 17:51:29 28° ESE
CSL-04 Debris 4.0 17:44:23 10° SSE 17:49:45 69° ENE 17:55:08 10° NNW
Meteor 1-24 Rocket 4.0 17:45:05 10° SSW 17:50:22 65° WNW 17:55:40 10° N
COSMOS 2455 2.9 17:45:37 10° SSW 17:51:29 56° ESE 17:54:03 33° ENE
Cosmos 1833 Rocket 3.0 17:47:45 10° NNW 17:53:12 46° NE 17:54:41 38° E
Cosmos 1626 Rocket 3.9 17:50:18 10° SSE 17:54:01 43° ESE 17:54:01 43° ESE
Cosmos 2082 Rocket 2.9 17:49:50 10° NNW 17:55:05 35° NE 17:55:56 33° NE
Cosmos 1844 4.1 17:51:24 10° S 17:56:36 39° ESE 17:57:10 38° E
USA 229 DEB 3.8 17:50:12 10° NW 17:57:21 78° NE 18:01:49 27° ESE
USA 229 3.8 17:50:19 10° NW 17:57:26 78° NE 18:01:52 27° ESE
Cosmos 2026 Rocket 4.3 17:52:05 10° SSE 17:57:43 40° E 18:03:27 10° NNE
USA 281 3.9 17:56:41 31° ENE 17:58:10 35° NE 18:03:57 10° NNW
CZ-4 R/B 1.8 17:55:03 10° S 17:59:07 64° WSW 18:03:09 10° NNW
COSMO-SKYMED 1 2.6 17:55:36 12° NNE 17:59:36 79° WNW 18:03:57 10° SSW
NOSS 3-4 (A) 4.0 17:57:52 10° W 18:03:51 53° NNW 18:07:06 29° NE
NOSS 3-4 (C) 4.0 17:58:02 10° W 18:04:00 53° NNW 18:07:15 29° NE
SL-08 RB Rocket 3.6 18:05:15 45° SE 18:06:29 65° ENE 18:10:57 10° N
Ariane Rocket 3.6 18:10:02 37° NE 18:10:02 37° NE 18:13:55 10° N
CZ-4B R/B 2.4 18:08:14 25° N 18:09:50 46° WNW 18:13:02 10° SW
S3M 4.4 18:04:55 10° N 18:10:10 38° NE 18:10:10 38° NE
Cosmos 2227 Rocket 4.0 18:07:53 10° WNW 18:12:21 23° NNW 18:15:38 15° NNE
NOSS 3-1 (A) 3.9 18:05:50 10° NW 18:12:51 81° NE 18:16:58 33° ESE
Okean-O 3.4 18:10:59 10° S 18:15:19 53° W 18:19:41 10° NNW
SeaSat 1 4.4 18:13:48 13° NNE 18:16:47 22° NNW 18:20:33 10° WNW
CZ-2C R/B 4.4 18:11:58 10° SSW 18:17:04 44° W 18:22:28 10° NNW
Cosmos 1844 Rocket 2.6 18:12:54 10° SSW 18:18:29 62° ESE 18:19:25 54° ENE
H-2A R/B 2.5 18:14:22 10° S 18:19:18 60° WSW 18:24:26 10° NNW
Meteor 2-8 Rocket 4.3 18:14:10 10° NNW 18:20:18 86° E 18:26:25 10° SSE
Meteor 2-15 4.3 18:14:48 10° N 18:20:58 67° ENE 18:24:42 25° SSE
Meteor 1-21 Rocket 4.0 18:15:38 10° S 18:21:08 78° ESE 18:25:18 19° NNE
Aureole 2 Rocket 4.4 18:18:33 10° SSW 18:19:29 18° SSW 18:19:29 18° SSW
ATLAS 2AS CENTAUR R/B 3.4 18:13:56 10° W 18:21:45 58° NNW 18:25:30 31° NE
Cosmos 1680 Rocket 3.8 18:16:58 10° NNW 18:22:13 67° WSW 18:26:36 14° SSE
Cosmos 2195 Rocket 4.4 18:17:00 10° S 18:23:15 66° E 18:29:33 10° NNE
NOSS 2-2 (E) 4.4 18:19:34 10° NW 18:23:58 45° NNE 18:24:12 45° NNE
H-2A R/B 4.3 18:28:04 10° N 18:31:40 24° NW 18:35:13 10° WSW
Cosmos 1627 Rocket 4.3 18:26:58 10° S 18:33:06 69° E 18:39:22 10° NNE
Cosmos 2098 Rocket 4.3 18:27:31 10° S 18:34:37 61° E 18:41:52 10° NNE
Cosmos 1818 3.6 18:29:57 10° SSW 18:34:52 59° SSE 18:34:52 59° SSE
Cosmos 2297 Rocket 4.1 18:33:15 10° WNW 18:37:18 19° NNW 18:39:22 16° NNE
YAOGAN 1 4.1 18:33:25 10° SSW 18:37:24 35° W 18:41:26 10° NNW
Cosmos 1428 Rocket 4.4 18:31:52 10° S 18:38:06 70° E 18:44:25 10° NNE
CSL-04 Rocket 4.2 18:35:50 10° S 18:41:10 59° WSW 18:46:38 10° NNW
USA 234 3.3 18:40:20 49° SE 18:42:12 75° SSW 18:48:48 10° WNW
Helios 1A Rocket 4.5 18:38:25 10° SSW 18:42:15 36° W 18:46:08 10° NNW
MOS 1 Rocket 4.2 18:40:56 18° N 18:43:46 42° WNW 18:47:48 10° SW
Iridium 4 Rocket 3.9 18:38:20 10° N 18:44:09 72° W 18:49:33 10° S
APEX 4.4 18:37:54 10° SW 18:44:48 83° NW 18:46:31 51° NNE
RESURS DK-1 4.3 18:43:52 10° W 18:47:13 23° NNW 18:47:47 22° NNW
Cosmos 1812 Rocket 4.3 18:43:07 10° NNW 18:47:25 51° W 18:48:54 35° SSW
ATLAS 5 CENTAUR R/B 2.3 18:43:29 10° W 18:47:37 50° NNW 18:47:37 50° NNW
Cosmos 1092 Rocket 3.9 18:42:03 10° SSW 18:48:16 84° WNW 18:54:28 10° N
Meteor 1-27 4.2 18:42:34 10° NNW 18:47:39 68° NNE 18:47:39 68° NNE
Meteor 2-15 Rocket 4.3 18:43:59 10° NNW 18:50:11 83° ENE 18:51:10 65° SSE
Cosmos 2344 4.3 18:43:26 10° NW 18:52:13 76° SW 18:59:36 27° SE
SL-24 R/B - RUBIN 2 4.4 18:47:43 10° SW 18:54:26 78° SE 18:54:50 75° E
SJ 16-02 2.4 18:52:53 10° SW 18:55:59 42° WSW 18:55:59 42° WSW
MetOp-A 4.2 19:04:29 73° W 19:04:29 73° W 19:09:43 10° NNW
Resurs 01 Rocket 4.4 19:08:52 10° N 19:08:52 10° N 19:08:52 10° N
CZ-4C R/B 3.1 19:00:09 10° W 19:05:45 45° N 19:06:30 43° NNE
MOS 1 4.4 19:07:20 72° NNW 19:07:20 72° NNW 19:12:27 10° NNW
Cosmos 2263 Rocket 3.7 19:03:45 10° W 19:08:45 31° NNW 19:10:38 25° N
COSMOS 2406 3.6 19:08:56 10° NW 19:14:40 61° WSW 19:14:49 61° SW
Lacrosse 5 4.4 19:19:40 10° W 19:22:21 14° SW 19:24:15 12° SSW
CZ-2C R/B 4.2 19:27:19 28° SSW 19:27:19 28° SSW 19:29:49 10° SSW
Cosmos 1833 Rocket 3.6 19:31:49 10° NW 19:36:25 45° W 19:36:25 45° W
COSMOS 2455 3.5 19:31:43 10° WSW 19:37:13 50° NW 19:37:13 50° NW
Cosmos 2082 Rocket 3.2 19:33:57 10° NW 19:37:48 43° NW 19:37:48 43° NW
USA 281 3.5 19:43:33 60° NW 19:43:33 60° NW 19:48:47 10° NNW
Cosmos 2227 Rocket 4.4 19:54:43 10° NW 19:57:27 17° N 19:57:27 17° N
Cosmos 1844 Rocket 4.2 19:57:25 10° WSW 20:01:07 33° WNW 20:01:07 33° WNW
ATLAS 2AS CENTAUR R/B 3.7 20:06:28 10° WNW 20:12:56 46° NNW 20:12:56 46° NNW
CZ-4C R/B 4.4 20:49:15 10° WNW 20:51:41 25° NW 20:51:41 25° NW
